リニア彗星

249P/LINEAR (2020)

English version
Home page
Updated on July 6, 2020

---------------------------------------------------------------------

・ プロフィール

・ 写真集

・ 軌道要素

Epoch 2020 July 10.0 TT = JDT 2459040.5
T 2020 June 29.49779 TT                                 Rudenko
q   0.4967543            (2000.0)            P               Q
n   0.21470508     Peri.   65.60564     +0.56207318     +0.81752555
a   2.7621113      Node   239.17645     -0.80186494     +0.50147455
e   0.8201541      Incl.    8.39686     -0.20269768     +0.28315235
P   4.59
From 480 observations 2006 Oct. 19-2020 Apr. 10, mean residual 0".5.

・ 星図

・ 光度変化

	H = 16.5  G = 0.15                [   ,-83]  (              〜2020年 4月 7日)
        m1 = 15.5 + 5 logΔ + 16.0 log r  [-83, 95]  (2020年 4月 7日〜2020年10月 2日)
	H = 16.5  G = 0.15                [ 95,   ]  (2020年10月 2日〜              )

        ※ 緑色の曲線は、H = 16.5  G = 0.15 の光度曲線です。

---------------------------------------------------------------------

軌道要素はM.P.E.C. 2020-G91に掲載されたものです。
星図はステラナビゲータ Ver.10 (アストロアーツ) で作成したものです。
光度グラフはComet for Windowsで作成したものです。

---------------------------------------------------------------------

Copyright(C) Seiichi Yoshida (comet@aerith.net). All rights reserved.